Time,TemperatureF,DewpointF,PressureIn,WindDirection,WindDirectionDegrees,WindSpeedMPH,WindSpeedGustMPH,Humidity,HourlyPrecipIn,Conditions,Clouds,dailyrainin,SoftwareType,DateUTC
2017-03-23 00:02:00,42.9,19.7,30.38,East,83,0.0,0.0,39,0.00,,OVC022,0.00,VWS V15.00,2017-03-23 04:02:00,
2017-03-23 00:07:00,42.8,20.2,30.39,East,83,1.0,2.0,40,0.00,,OVC022,0.00,VWS V15.00,2017-03-23 04:07:00,
2017-03-23 00:12:00,42.5,19.9,30.39,East,83,0.0,2.0,40,0.00,,OVC022,0.00,VWS V15.00,2017-03-23 04:12:00,
2017-03-23 00:17:00,42.3,20.3,30.39,East,83,1.0,2.0,41,0.00,,OVC022,0.00,VWS V15.00,2017-03-23 04:17:00,
2017-03-23 00:22:00,42.1,20.1,30.39,East,83,0.0,4.0,41,0.00,,OVC022,0.00,VWS V15.00,2017-03-23 04:22:00,
2017-03-23 00:27:00,41.9,19.9,30.39,East,83,0.0,0.0,41,0.00,,OVC022,0.00,VWS V15.00,2017-03-23 04:27:00,
2017-03-23 00:32:00,41.7,19.8,30.40,East,83,0.0,2.0,41,0.00,,OVC022,0.00,VWS V15.00,2017-03-23 04:32:00,
2017-03-23 00:37:00,41.6,20.2,30.40,East,83,0.0,2.0,42,0.00,,OVC022,0.00,VWS V15.00,2017-03-23 04:37:00,
2017-03-23 00:42:00,41.4,20.0,30.40,East,83,0.0,3.0,42,0.00,,OVC022,0.00,VWS V15.00,2017-03-23 04:42:00,
2017-03-23 00:47:00,41.3,20.0,30.40,East,82,0.0,4.0,42,0.00,,OVC022,0.00,VWS V15.00,2017-03-23 04:47:00,
2017-03-23 00:52:00,41.1,19.8,30.40,East,82,0.0,4.0,42,0.00,,OVC022,0.00,VWS V15.00,2017-03-23 04:52:00,
2017-03-23 00:57:00,41.0,19.7,30.40,East,82,0.0,0.0,42,0.00,,OVC022,0.00,VWS V15.00,2017-03-23 04:57:00,
2017-03-23 01:02:00,40.9,20.7,30.41,East,82,2.0,3.0,44,0.00,,OVC022,0.00,VWS V15.00,2017-03-23 05:02:00,
2017-03-23 01:07:00,40.8,20.0,30.41,East,82,0.0,3.0,43,0.00,,OVC022,0.00,VWS V15.00,2017-03-23 05:07:00,
2017-03-23 01:12:00,40.7,20.0,30.41,East,82,0.0,3.0,43,0.00,,OVC022,0.00,VWS V15.00,2017-03-23 05:12:00,
2017-03-23 01:17:00,40.6,20.4,30.41,East,82,1.0,3.0,44,0.00,,OVC022,0.00,VWS V15.00,2017-03-23 05:17:00,
2017-03-23 01:22:00,40.5,20.3,30.41,East,82,3.0,3.0,44,0.00,,OVC022,0.00,VWS V15.00,2017-03-23 05:22:00,
2017-03-23 01:27:00,40.4,20.2,30.41,East,82,1.0,1.0,44,0.00,,OVC022,0.00,VWS V15.00,2017-03-23 05:27:00,
2017-03-23 01:32:00,40.3,20.1,30.40,East,82,0.0,3.0,44,0.00,,OVC022,0.00,VWS V15.00,2017-03-23 05:32:00,
2017-03-23 01:37:00,40.3,19.6,30.41,East,79,2.0,6.0,43,0.00,,OVC022,0.00,VWS V15.00,2017-03-23 05:37:00,
2017-03-23 01:42:00,40.3,19.6,30.41,East,84,1.0,6.0,43,0.00,,OVC022,0.00,VWS V15.00,2017-03-23 05:42:00,
2017-03-23 01:47:00,40.4,19.7,30.41,East,86,1.0,6.0,43,0.00,,OVC022,0.00,VWS V15.00,2017-03-23 05:47:00,
2017-03-23 01:52:00,40.4,19.7,30.41,East,84,1.0,6.0,43,0.00,,OVC022,0.00,VWS V15.00,2017-03-23 05:52:00,
2017-03-23 01:57:00,40.4,19.7,30.41,East,80,2.0,2.0,43,0.00,,OVC022,0.00,VWS V15.00,2017-03-23 05:57:00,
2017-03-23 02:02:00,40.4,19.1,30.41,East,82,2.0,5.0,42,0.00,,OVC022,0.00,VWS V15.00,2017-03-23 06:02:00,
2017-03-23 02:07:00,40.4,19.1,30.41,East,90,1.0,6.0,42,0.00,,OVC022,0.00,VWS V15.00,2017-03-23 06:07:00,
2017-03-23 02:12:00,40.3,19.6,30.41,East,81,3.0,6.0,43,0.00,,OVC022,0.00,VWS V15.00,2017-03-23 06:12:00,
2017-03-23 02:17:00,40.3,19.6,30.41,East,88,0.0,7.0,43,0.00,,OVC022,0.00,VWS V15.00,2017-03-23 06:17:00,
2017-03-23 02:22:00,40.2,19.5,30.41,East,83,2.0,9.0,43,0.00,,OVC022,0.00,VWS V15.00,2017-03-23 06:22:00,
2017-03-23 02:27:00,40.1,19.4,30.41,East,89,2.0,3.0,43,0.00,,OVC022,0.00,VWS V15.00,2017-03-23 06:27:00,
2017-03-23 02:32:00,40.0,19.3,30.41,ENE,76,2.0,9.0,43,0.00,,OVC022,0.00,VWS V15.00,2017-03-23 06:32:00,
2017-03-23 02:37:00,39.8,19.1,30.42,ENE,67,2.0,9.0,43,0.00,,OVC022,0.00,VWS V15.00,2017-03-23 06:37:00,
2017-03-23 02:42:00,39.7,19.0,30.42,ESE,119,7.0,9.0,43,0.00,,OVC022,0.00,VWS V15.00,2017-03-23 06:42:00,
2017-03-23 02:47:00,39.5,18.9,30.42,East,92,4.0,9.0,43,0.00,,OVC022,0.00,VWS V15.00,2017-03-23 06:47:00,
2017-03-23 02:52:00,39.4,18.8,30.42,East,101,2.0,9.0,43,0.00,,OVC022,0.00,VWS V15.00,2017-03-23 06:52:00,
2017-03-23 02:57:00,39.2,19.1,30.42,ENE,71,4.0,4.0,44,0.00,,OVC022,0.00,VWS V15.00,2017-03-23 06:57:00,
2017-03-23 03:02:00,39.1,18.5,30.42,East,94,6.0,12.0,43,0.00,,OVC022,0.00,VWS V15.00,2017-03-23 07:02:00,
2017-03-23 03:07:00,39.0,18.4,30.42,East,101,0.0,12.0,43,0.00,,OVC022,0.00,VWS V15.00,2017-03-23 07:07:00,
2017-03-23 03:12:00,38.9,18.3,30.43,ENE,69,2.0,12.0,43,0.00,,OVC022,0.00,VWS V15.00,2017-03-23 07:12:00,
2017-03-23 03:17:00,38.8,18.2,30.42,ENE,58,5.0,12.0,43,0.00,,OVC022,0.00,VWS V15.00,2017-03-23 07:17:00,
2017-03-23 03:22:00,38.6,17.0,30.42,ENE,60,3.0,12.0,41,0.00,,OVC022,0.00,VWS V15.00,2017-03-23 07:22:00,
2017-03-23 03:27:00,38.6,17.0,30.43,ESE,123,0.0,0.0,41,0.00,,OVC022,0.00,VWS V15.00,2017-03-23 07:27:00,
2017-03-23 03:32:00,38.6,16.4,30.43,East,89,9.0,10.0,40,0.00,,OVC022,0.00,VWS V15.00,2017-03-23 07:32:00,
2017-03-23 03:37:00,38.6,15.8,30.43,ENE,78,1.0,10.0,39,0.00,,OVC022,0.00,VWS V15.00,2017-03-23 07:37:00,
2017-03-23 03:42:00,38.6,15.8,30.43,East,80,0.0,10.0,39,0.00,,OVC022,0.00,VWS V15.00,2017-03-23 07:42:00,
2017-03-23 03:47:00,38.4,16.2,30.43,East,90,3.0,10.0,40,0.00,,OVC022,0.00,VWS V15.00,2017-03-23 07:47:00,
2017-03-23 03:52:00,38.4,16.2,30.43,East,90,3.0,10.0,40,0.00,,OVC022,0.00,VWS V15.00,2017-03-23 07:52:00,
2017-03-23 03:57:00,38.2,16.0,30.43,East,92,3.0,10.0,40,0.00,,OVC022,0.00,VWS V15.00,2017-03-23 07:57:00,
2017-03-23 04:02:00,38.1,16.5,30.43,East,88,0.0,4.0,41,0.00,,OVC022,0.00,VWS V15.00,2017-03-23 08:02:00,
2017-03-23 04:07:00,38.0,16.4,30.43,East,88,0.0,4.0,41,0.00,,OVC022,0.00,VWS V15.00,2017-03-23 08:07:00,
2017-03-23 04:12:00,37.8,16.2,30.43,East,80,1.0,5.0,41,0.00,,OVC022,0.00,VWS V15.00,2017-03-23 08:12:00,
2017-03-23 04:17:00,37.7,16.1,30.43,East,88,0.0,5.0,41,0.00,,OVC022,0.00,VWS V15.00,2017-03-23 08:17:00,
2017-03-23 04:27:00,37.4,16.4,30.43,ESE,108,1.0,2.0,42,0.00,,OVC022,0.00,VWS V15.00,2017-03-23 08:27:00,
2017-03-23 04:32:00,37.2,16.2,30.43,NE,55,2.0,5.0,42,0.00,,OVC022,0.00,VWS V15.00,2017-03-23 08:32:00,
2017-03-23 04:37:00,37.1,16.1,30.43,East,88,4.0,5.0,42,0.00,,OVC022,0.00,VWS V15.00,2017-03-23 08:37:00,
2017-03-23 04:42:00,37.0,16.1,30.43,East,83,2.0,5.0,42,0.00,,OVC022,0.00,VWS V15.00,2017-03-23 08:42:00,
2017-03-23 04:47:00,36.9,16.0,30.44,East,85,0.0,5.0,42,0.00,,OVC022,0.00,VWS V15.00,2017-03-23 08:47:00,
2017-03-23 04:52:00,36.8,16.4,30.44,East,85,1.0,5.0,43,0.00,,OVC022,0.00,VWS V15.00,2017-03-23 08:52:00,
2017-03-23 04:57:00,36.6,16.2,30.44,East,84,0.0,0.0,43,0.00,,OVC022,0.00,VWS V15.00,2017-03-23 08:57:00,
2017-03-23 05:02:00,36.5,16.7,30.45,East,84,0.0,1.0,44,0.00,,OVC022,0.00,VWS V15.00,2017-03-23 09:02:00,
2017-03-23 05:07:00,36.4,17.1,30.44,East,84,0.0,1.0,45,0.00,,OVC022,0.00,VWS V15.00,2017-03-23 09:07:00,
2017-03-23 05:12:00,36.2,16.9,30.45,East,84,1.0,1.0,45,0.00,,OVC022,0.00,VWS V15.00,2017-03-23 09:12:00,
2017-03-23 05:17:00,36.0,16.7,30.45,East,84,0.0,1.0,45,0.00,,OVC022,0.00,VWS V15.00,2017-03-23 09:17:00,
2017-03-23 05:22:00,35.9,17.1,30.45,East,84,0.0,1.0,46,0.00,,OVC022,0.00,VWS V15.00,2017-03-23 09:22:00,
2017-03-23 05:27:00,35.7,17.5,30.45,East,84,0.0,0.0,47,0.00,,OVC022,0.00,VWS V15.00,2017-03-23 09:27:00,
2017-03-23 05:32:00,35.5,17.8,30.46,East,84,0.0,1.0,48,0.00,,OVC022,0.00,VWS V15.00,2017-03-23 09:32:00,
2017-03-23 05:37:00,35.3,18.1,30.46,East,84,0.0,1.0,49,0.00,,OVC022,0.00,VWS V15.00,2017-03-23 09:37:00,
2017-03-23 05:42:00,35.1,17.9,30.46,East,84,0.0,1.0,49,0.00,,OVC022,0.00,VWS V15.00,2017-03-23 09:42:00,
2017-03-23 05:47:00,34.9,19.5,30.45,East,84,0.0,1.0,53,0.00,,OVC022,0.00,VWS V15.00,2017-03-23 09:47:00,
2017-03-23 05:52:00,34.6,18.8,30.46,East,84,0.0,1.0,52,0.00,,OVC022,0.00,VWS V15.00,2017-03-23 09:52:00,
2017-03-23 05:57:00,34.4,19.0,30.46,East,84,0.0,0.0,53,0.00,,OVC022,0.00,VWS V15.00,2017-03-23 09:57:00,
2017-03-23 06:02:00,34.2,19.3,30.46,East,84,0.0,0.0,54,0.00,,OVC022,0.00,VWS V15.00,2017-03-23 10:02:00,
2017-03-23 06:07:00,34.0,18.7,30.47,East,84,0.0,0.0,53,0.00,,OVC022,0.00,VWS V15.00,2017-03-23 10:07:00,
2017-03-23 06:12:00,33.8,18.9,30.47,East,84,0.0,0.0,54,0.00,,OVC022,0.00,VWS V15.00,2017-03-23 10:12:00,
2017-03-23 06:17:00,33.6,18.7,30.47,East,84,0.0,0.0,54,0.00,,OVC022,0.00,VWS V15.00,2017-03-23 10:17:00,
2017-03-23 06:22:00,33.3,18.5,30.47,East,84,0.0,0.0,54,0.00,,OVC022,0.00,VWS V15.00,2017-03-23 10:22:00,
2017-03-23 06:27:00,33.1,18.7,30.48,East,84,0.0,0.0,55,0.00,,OVC022,0.00,VWS V15.00,2017-03-23 10:27:00,
2017-03-23 06:32:00,32.8,18.8,30.48,East,84,0.0,0.0,56,0.00,,OVC022,0.00,VWS V15.00,2017-03-23 10:32:00,
2017-03-23 06:37:00,32.6,18.7,30.48,East,84,0.0,0.0,56,0.00,,OVC022,0.00,VWS V15.00,2017-03-23 10:37:00,
2017-03-23 06:42:00,32.5,18.6,30.48,East,84,0.0,0.0,56,0.00,,OVC022,0.00,VWS V15.00,2017-03-23 10:42:00,
2017-03-23 06:47:00,32.3,18.8,30.48,East,84,0.0,0.0,57,0.00,,OVC022,0.00,VWS V15.00,2017-03-23 10:47:00,
2017-03-23 06:52:00,32.2,18.7,30.49,East,84,0.0,0.0,57,0.00,,OVC022,0.00,VWS V15.00,2017-03-23 10:52:00,
2017-03-23 06:57:00,32.1,18.6,30.49,East,84,0.0,0.0,57,0.00,,OVC022,0.00,VWS V15.00,2017-03-23 10:57:00,
2017-03-23 07:02:00,31.9,18.4,30.49,East,84,0.0,0.0,57,0.00,,OVC022,0.00,VWS V15.00,2017-03-23 11:02:00,
2017-03-23 07:07:00,31.8,18.7,30.49,East,84,0.0,0.0,58,0.00,,OVC022,0.00,VWS V15.00,2017-03-23 11:07:00,
2017-03-23 07:12:00,31.6,18.5,30.49,East,84,0.0,0.0,58,0.00,,OVC022,0.00,VWS V15.00,2017-03-23 11:12:00,
2017-03-23 07:17:00,31.5,18.8,30.50,East,84,2.0,3.0,59,0.00,,OVC022,0.00,VWS V15.00,2017-03-23 11:17:00,
2017-03-23 07:22:00,31.5,18.4,30.50,East,84,3.0,3.0,58,0.00,,OVC022,0.00,VWS V15.00,2017-03-23 11:22:00,
2017-03-23 07:27:00,31.5,18.4,30.50,East,84,0.0,3.0,58,0.00,,OVC022,0.00,VWS V15.00,2017-03-23 11:27:00,
2017-03-23 07:32:00,31.6,18.5,30.50,East,84,1.0,3.0,58,0.00,,OVC022,0.00,VWS V15.00,2017-03-23 11:32:00,
2017-03-23 07:37:00,31.7,19.0,30.51,East,84,2.0,3.0,59,0.00,,OVC022,0.00,VWS V15.00,2017-03-23 11:37:00,
2017-03-23 07:42:00,31.7,18.6,30.51,East,84,0.0,4.0,58,0.00,,OVC022,0.00,VWS V15.00,2017-03-23 11:42:00,
2017-03-23 07:47:00,32.0,18.5,30.51,East,84,0.0,4.0,57,0.00,,OVC022,0.00,VWS V15.00,2017-03-23 11:47:00,
2017-03-23 07:52:00,32.3,18.8,30.52,East,84,0.0,4.0,57,0.00,,OVC022,0.00,VWS V15.00,2017-03-23 11:52:00,
2017-03-23 07:57:00,32.6,18.7,30.52,ENE,74,0.0,4.0,56,0.00,,OVC022,0.00,VWS V15.00,2017-03-23 11:57:00,
2017-03-23 08:02:00,33.0,18.6,30.52,ENE,73,1.0,3.0,55,0.00,,OVC022,0.00,VWS V15.00,2017-03-23 12:02:00,
2017-03-23 08:07:00,33.2,18.8,30.53,NE,40,2.0,6.0,55,0.00,,OVC022,0.00,VWS V15.00,2017-03-23 12:07:00,
2017-03-23 08:12:00,33.5,18.6,30.53,NNE,29,0.0,6.0,54,0.00,,OVC022,0.00,VWS V15.00,2017-03-23 12:12:00,
2017-03-23 08:17:00,33.8,18.5,30.53,NNE,30,0.0,6.0,53,0.00,,OVC022,0.00,VWS V15.00,2017-03-23 12:17:00,
2017-03-23 08:22:00,34.1,18.3,30.54,NE,42,0.0,6.0,52,0.00,,OVC022,0.00,VWS V15.00,2017-03-23 12:22:00,
2017-03-23 08:23:00,34.2,18.4,30.54,NE,47,2.0,6.0,52,0.00,,OVC022,0.00,VWS V15.00,2017-03-23 12:23:00,
2017-03-23 08:28:00,34.6,18.3,30.54,ENE,70,4.0,4.0,51,0.00,,OVC022,0.00,VWS V15.00,2017-03-23 12:28:00,
2017-03-23 08:33:00,35.1,18.4,30.54,NE,42,3.0,5.0,50,0.00,,OVC022,0.00,VWS V15.00,2017-03-23 12:33:00,
2017-03-23 08:38:00,35.8,18.5,30.54,NE,51,0.0,7.0,49,0.00,,OVC022,0.00,VWS V15.00,2017-03-23 12:38:00,
2017-03-23 08:43:00,36.3,18.0,30.55,ENE,61,6.0,7.0,47,0.00,,OVC022,0.00,VWS V15.00,2017-03-23 12:43:00,
2017-03-23 08:48:00,36.7,18.4,30.54,ENE,59,2.0,9.0,47,0.00,,OVC022,0.00,VWS V15.00,2017-03-23 12:48:00,
2017-03-23 08:53:00,37.0,18.2,30.54,ESE,115,1.0,10.0,46,0.00,,OVC022,0.00,VWS V15.00,2017-03-23 12:53:00,
2017-03-23 08:58:00,37.4,18.0,30.54,ENE,74,4.0,10.0,45,0.00,,OVC022,0.00,VWS V15.00,2017-03-23 12:58:00,
2017-03-23 09:03:00,37.8,18.4,30.54,NNE,15,5.0,10.0,45,0.00,,OVC022,0.00,VWS V15.00,2017-03-23 13:03:00,
2017-03-23 09:08:00,38.1,18.1,30.54,NE,46,8.0,12.0,44,0.00,,OVC022,0.00,VWS V15.00,2017-03-23 13:08:00,
2017-03-23 09:17:00,38.6,18.6,30.54,East,97,7.0,7.0,44,0.00,,OVC022,0.00,VWS V15.00,2017-03-23 13:17:00,
2017-03-23 09:22:00,38.9,18.3,30.55,East,98,4.0,9.0,43,0.00,,OVC022,0.00,VWS V15.00,2017-03-23 13:22:00,
2017-03-23 09:27:00,39.1,19.0,30.55,East,98,7.0,9.0,44,0.00,,OVC022,0.00,VWS V15.00,2017-03-23 13:27:00,
2017-03-23 09:32:00,39.3,19.2,30.55,NNE,30,5.0,7.0,44,0.00,,OVC022,0.00,VWS V15.00,2017-03-23 13:32:00,
2017-03-23 09:42:00,40.0,19.9,30.55,NE,51,2.0,9.0,44,0.00,,OVC022,0.00,VWS V15.00,2017-03-23 13:42:00,
2017-03-23 09:47:00,40.5,20.9,30.56,NNE,25,6.0,9.0,45,0.00,,OVC022,0.00,VWS V15.00,2017-03-23 13:47:00,
2017-03-23 09:52:00,41.3,21.0,30.56,ENE,76,2.0,9.0,44,0.00,,OVC022,0.00,VWS V15.00,2017-03-23 13:52:00,
2017-03-23 09:57:00,42.2,22.4,30.56,NE,34,5.0,9.0,45,0.00,,OVC022,0.00,VWS V15.00,2017-03-23 13:57:00,
2017-03-23 10:02:00,42.8,21.3,30.56,ENE,63,5.0,11.0,42,0.00,,OVC022,0.00,VWS V15.00,2017-03-23 14:02:00,
2017-03-23 10:07:00,43.0,21.5,30.56,ENE,69,3.0,11.0,42,0.00,,OVC022,0.00,VWS V15.00,2017-03-23 14:07:00,
2017-03-23 10:12:00,43.7,22.7,30.56,NE,38,3.0,11.0,43,0.00,,OVC022,0.00,VWS V15.00,2017-03-23 14:12:00,
2017-03-23 10:17:00,44.6,22.9,30.56,North,5,2.0,11.0,42,0.00,,OVC022,0.00,VWS V15.00,2017-03-23 14:17:00,
2017-03-23 10:22:00,45.0,22.1,30.56,NE,55,6.0,11.0,40,0.00,,OVC022,0.00,VWS V15.00,2017-03-23 14:22:00,
2017-03-23 10:27:00,45.1,21.6,30.57,SE,141,2.0,11.0,39,0.00,,OVC022,0.00,VWS V15.00,2017-03-23 14:27:00,
2017-03-23 10:32:00,45.0,22.1,30.57,ENE,68,3.0,10.0,40,0.00,,OVC022,0.00,VWS V15.00,2017-03-23 14:32:00,
2017-03-23 10:37:00,45.4,22.5,30.57,East,91,0.0,10.0,40,0.00,,OVC022,0.00,VWS V15.00,2017-03-23 14:37:00,
2017-03-23 10:42:00,46.3,22.7,30.57,NE,50,2.0,11.0,39,0.00,,OVC022,0.00,VWS V15.00,2017-03-23 14:42:00,
2017-03-23 10:47:00,45.2,22.3,30.56,ESE,105,3.0,11.0,40,0.00,,OVC022,0.00,VWS V15.00,2017-03-23 14:47:00,
2017-03-23 10:52:00,45.2,22.3,30.57,East,95,0.0,11.0,40,0.00,,OVC022,0.00,VWS V15.00,2017-03-23 14:52:00,
2017-03-23 10:57:00,45.6,23.9,30.57,ENE,76,6.0,11.0,42,0.00,,OVC022,0.00,VWS V15.00,2017-03-23 14:57:00,
2017-03-23 11:02:00,45.7,23.4,30.57,ESE,112,5.0,12.0,41,0.00,,OVC022,0.00,VWS V15.00,2017-03-23 15:02:00,
2017-03-23 11:07:00,45.9,23.0,30.57,SSE,159,5.0,12.0,40,0.00,,OVC022,0.00,VWS V15.00,2017-03-23 15:07:00,
2017-03-23 11:12:00,46.1,22.5,30.57,SSW,199,1.0,12.0,39,0.00,,OVC022,0.00,VWS V15.00,2017-03-23 15:12:00,
2017-03-23 11:17:00,47.2,23.5,30.57,East,82,0.0,12.0,39,0.00,,OVC022,0.00,VWS V15.00,2017-03-23 15:17:00,
2017-03-23 11:22:00,47.8,24.7,30.56,ENE,74,0.0,12.0,40,0.00,,OVC022,0.00,VWS V15.00,2017-03-23 15:22:00,
2017-03-23 11:27:00,48.0,24.2,30.57,North,5,1.0,12.0,39,0.00,,OVC022,0.00,VWS V15.00,2017-03-23 15:27:00,
2017-03-23 11:32:00,47.5,23.8,30.57,NNE,32,6.0,11.0,39,0.00,,OVC022,0.00,VWS V15.00,2017-03-23 15:32:00,
2017-03-23 11:37:00,48.5,25.3,30.57,NNE,23,1.0,11.0,40,0.00,,OVC022,0.00,VWS V15.00,2017-03-23 15:37:00,
2017-03-23 11:42:00,48.3,24.5,30.56,SE,144,1.0,11.0,39,0.00,,OVC022,0.00,VWS V15.00,2017-03-23 15:42:00,
2017-03-23 11:47:00,49.1,24.6,30.57,NE,50,7.0,11.0,38,0.00,,OVC022,0.00,VWS V15.00,2017-03-23 15:47:00,
2017-03-23 11:52:00,49.5,25.6,30.57,North,5,0.0,11.0,39,0.00,,OVC022,0.00,VWS V15.00,2017-03-23 15:52:00,
2017-03-23 11:57:00,48.9,23.8,30.56,East,82,4.0,11.0,37,0.00,,OVC022,0.00,VWS V15.00,2017-03-23 15:57:00,
2017-03-23 12:02:00,49.0,24.5,30.56,NE,39,1.0,1.0,38,0.00,,OVC022,0.00,VWS V15.00,2017-03-23 16:02:00,
2017-03-23 12:07:00,50.2,25.6,30.56,East,91,3.0,7.0,38,0.00,,OVC022,0.00,VWS V15.00,2017-03-23 16:07:00,
2017-03-23 12:12:00,50.6,25.3,30.56,ENE,65,6.0,7.0,37,0.00,,OVC022,0.00,VWS V15.00,2017-03-23 16:12:00,
2017-03-23 12:17:00,49.9,24.7,30.56,ENE,67,4.0,10.0,37,0.00,,OVC022,0.00,VWS V15.00,2017-03-23 16:17:00,
2017-03-23 12:22:00,50.2,25.0,30.56,SE,146,0.0,10.0,37,0.00,,OVC022,0.00,VWS V15.00,2017-03-23 16:22:00,
2017-03-23 12:27:00,49.9,24.0,30.56,NNE,30,3.0,4.0,36,0.00,,OVC022,0.00,VWS V15.00,2017-03-23 16:27:00,
2017-03-23 12:32:00,50.7,25.4,30.55,NE,50,5.0,9.0,37,0.00,,OVC022,0.00,VWS V15.00,2017-03-23 16:32:00,
2017-03-23 12:37:00,50.4,23.8,30.55,ENE,75,3.0,9.0,35,0.00,,OVC022,0.00,VWS V15.00,2017-03-23 16:37:00,
2017-03-23 12:42:00,49.7,24.5,30.55,East,94,3.0,9.0,37,0.00,,OVC022,0.00,VWS V15.00,2017-03-23 16:42:00,
2017-03-23 12:47:00,50.4,23.8,30.55,SSE,149,2.0,9.0,35,0.00,,OVC022,0.00,VWS V15.00,2017-03-23 16:47:00,
2017-03-23 12:52:00,50.3,25.0,30.55,SE,140,3.0,9.0,37,0.00,,OVC022,0.00,VWS V15.00,2017-03-23 16:52:00,
2017-03-23 12:57:00,50.5,23.9,30.55,SE,138,0.0,0.0,35,0.00,,OVC022,0.00,VWS V15.00,2017-03-23 16:57:00,
2017-03-23 13:02:00,51.2,24.5,30.55,SE,124,0.0,2.0,35,0.00,,OVC022,0.00,VWS V15.00,2017-03-23 17:02:00,
2017-03-23 13:07:00,51.2,23.1,30.54,SSE,147,3.0,6.0,33,0.00,,OVC022,0.00,VWS V15.00,2017-03-23 17:07:00,
2017-03-23 13:12:00,50.2,24.3,30.54,SSE,153,1.0,6.0,36,0.00,,OVC022,0.00,VWS V15.00,2017-03-23 17:12:00,
2017-03-23 13:17:00,51.7,24.3,30.54,SSE,156,0.0,6.0,34,0.00,,OVC022,0.00,VWS V15.00,2017-03-23 17:17:00,
2017-03-23 13:22:00,51.9,24.4,30.54,ESE,110,3.0,6.0,34,0.00,,OVC022,0.00,VWS V15.00,2017-03-23 17:22:00,
2017-03-23 13:27:00,52.1,23.2,30.54,SSW,211,0.0,3.0,32,0.00,,OVC022,0.00,VWS V15.00,2017-03-23 17:27:00,
2017-03-23 13:32:00,52.4,25.6,30.54,NE,37,2.0,6.0,35,0.00,,OVC022,0.00,VWS V15.00,2017-03-23 17:32:00,
2017-03-23 13:37:00,53.5,24.4,30.53,ENE,63,2.0,9.0,32,0.00,,OVC022,0.00,VWS V15.00,2017-03-23 17:37:00,
2017-03-23 13:42:00,52.4,22.7,30.53,East,83,3.0,9.0,31,0.00,,OVC022,0.00,VWS V15.00,2017-03-23 17:42:00,
2017-03-23 13:47:00,52.9,24.6,30.53,East,80,3.0,9.0,33,0.00,,OVC022,0.00,VWS V15.00,2017-03-23 17:47:00,
2017-03-23 13:52:00,53.3,24.2,30.53,ENE,78,3.0,9.0,32,0.00,,OVC022,0.00,VWS V15.00,2017-03-23 17:52:00,
2017-03-23 13:57:00,52.7,22.9,30.53,East,85,1.0,1.0,31,0.00,,OVC022,0.00,VWS V15.00,2017-03-23 17:57:00,
2017-03-23 14:02:00,53.0,23.2,30.52,East,89,2.0,4.0,31,0.00,,OVC022,0.00,VWS V15.00,2017-03-23 18:02:00,
2017-03-23 14:07:00,52.2,22.5,30.52,ESE,114,1.0,5.0,31,0.00,,OVC022,0.00,VWS V15.00,2017-03-23 18:07:00,
2017-03-23 14:12:00,53.2,22.6,30.52,East,96,3.0,6.0,30,0.00,,OVC022,0.00,VWS V15.00,2017-03-23 18:12:00,
2017-03-23 14:13:00,53.1,22.5,30.52,East,99,5.0,6.0,30,0.00,,OVC022,0.00,VWS V15.00,2017-03-23 18:13:00,
2017-03-23 14:18:00,52.9,22.3,30.52,ENE,77,6.0,9.0,30,0.00,,OVC022,0.00,VWS V15.00,2017-03-23 18:18:00,
2017-03-23 14:23:00,53.4,22.0,30.52,East,90,2.0,9.0,29,0.00,,OVC022,0.00,VWS V15.00,2017-03-23 18:23:00,
2017-03-23 14:28:00,53.1,21.7,30.52,East,93,0.0,0.0,29,0.00,,OVC022,0.00,VWS V15.00,2017-03-23 18:28:00,
2017-03-23 14:33:00,53.1,23.3,30.52,NNW,344,0.0,8.0,31,0.00,,OVC022,0.00,VWS V15.00,2017-03-23 18:33:00,
2017-03-23 14:38:00,54.2,22.6,30.52,NE,42,2.0,8.0,29,0.00,,OVC022,0.00,VWS V15.00,2017-03-23 18:38:00,
2017-03-23 14:43:00,53.9,24.0,30.51,ENE,76,3.0,8.0,31,0.00,,OVC022,0.00,VWS V15.00,2017-03-23 18:43:00,
2017-03-23 14:48:00,53.3,22.7,30.52,East,79,0.0,8.0,30,0.00,,OVC022,0.00,VWS V15.00,2017-03-23 18:48:00,
2017-03-23 14:53:00,52.2,22.5,30.51,WNW,286,2.0,8.0,31,0.00,,OVC022,0.00,VWS V15.00,2017-03-23 18:53:00,
2017-03-23 14:58:00,52.7,23.7,30.51,West,277,0.0,0.0,32,0.00,,OVC022,0.00,VWS V15.00,2017-03-23 18:58:00,
2017-03-23 15:03:00,52.8,23.8,30.51,ESE,117,5.0,7.0,32,0.00,,OVC022,0.00,VWS V15.00,2017-03-23 19:03:00,
2017-03-23 15:08:00,52.6,23.6,30.51,SSE,148,3.0,9.0,32,0.00,,OVC022,0.00,VWS V15.00,2017-03-23 19:08:00,